K3TXT-1 Weather Reports


time (UTC)temp
F
wind
direction
speed
knots
gust
knots
rain 1hr
in
rain 24hr
in
rain mn
in
humidity
%
barometer
mb
20260505041559 59 153 0.0 0.0 0.00 0.00 0.00 78
20260505041159 59 153 0.0 0.0 0.00 0.00 0.00 78
20260505041001 59 154 0.0 0.0 0.00 0.00 0.00 78
20260505040800 59 153 0.0 0.0 0.00 0.00 0.00 78
20260505040559 59 154 0.0 0.0 0.00 0.00 0.00 78
20260505040400 59 153 0.0 0.0 0.00 0.00 0.00 79
20260505040158 59 153 0.0 0.0 0.00 0.00 0.00 79
20260505040000 59 153 0.0 0.0 0.00 0.00 0.00 78
20260505035759 59 153 0.0 0.0 0.00 0.00 0.00 78
20260505035600 59 153 0.0 0.0 0.00 0.00 0.00 78
20260505035159 59 153 0.0 0.0 0.00 0.00 0.00 78
20260505035000 59 153 0.0 0.0 0.00 0.00 0.00 78
20260505034802 59 153 0.0 0.0 0.00 0.00 0.00 78
20260505034559 59 153 0.0 0.0 0.00 0.00 0.00 78
20260505034359 60 153 0.0 0.0 0.00 0.00 0.00 78
20260505033758 60 153 0.0 0.0 0.00 0.00 0.00 78
20260505033359 60 154 0.0 0.0 0.00 0.00 0.00 77
20260505033159 60 153 0.0 0.0 0.00 0.00 0.00 78
20260505033005 60 153 0.0 0.0 0.00 0.00 0.00 77
20260505032559 60 153 0.0 0.0 0.00 0.00 0.00 77
20260505032400 60 154 0.0 0.0 0.00 0.00 0.00 78
20260505032159 60 154 0.0 0.0 0.00 0.00 0.00 77
20260505032001 60 154 0.0 0.0 0.00 0.00 0.00 77
20260505031759 60 154 0.0 0.0 0.00 0.00 0.00 77
20260505031559 60 153 0.0 0.0 0.00 0.00 0.00 77
20260505031358 60 153 0.0 0.0 0.00 0.00 0.00 77
20260505031200 61 153 0.0 0.0 0.00 0.00 0.00 77
20260505031000 61 153 0.0 0.0 0.00 0.00 0.00 77
20260505030559 61 153 0.0 0.0 0.00 0.00 0.00 76
20260505030359 61 154 0.0 0.0 0.00 0.00 0.00 76
20260505030159 61 153 0.0 0.0 0.00 0.00 0.00 76
20260505030001 61 153 0.0 0.0 0.00 0.00 0.00 76
20260505025759 61 153 0.0 0.0 0.00 0.00 0.00 76
20260505025559 61 154 0.0 0.0 0.00 0.00 0.00 75
20260505025400 61 153 0.0 0.0 0.00 0.00 0.00 75
20260505025000 61 154 0.0 0.0 0.00 0.00 0.00 75
20260505024559 62 153 0.0 0.0 0.00 0.00 0.00 75
20260505024358 62 153 0.0 0.0 0.00 0.00 0.00 74
20260505024200 62 154 0.0 0.0 0.00 0.00 0.00 74
20260505023759 62 157 0.0 0.0 0.00 0.00 0.00 74
20260505023400 62 156 0.0 0.0 0.00 0.00 0.00 73
20260505023159 62 157 0.0 0.0 0.00 0.00 0.00 73
20260505023004 62 157 0.0 0.0 0.00 0.00 0.00 73
20260505022758 62 157 0.0 0.9 0.00 0.00 0.00 73
20260505022559 62 157 0.0 0.9 0.00 0.00 0.00 72
20260505022359 62 157 0.0 0.9 0.00 0.00 0.00 72
20260505022200 63 157 0.0 0.9 0.00 0.00 0.00 72
20260505022004 63 157 0.0 0.9 0.00 0.00 0.00 72
20260505021601 63 157 0.0 0.9 0.00 0.00 0.00 72
20260505021359 63 157 0.0 1.7 0.00 0.00 0.00 71
20260505021159 63 157 0.0 1.7 0.00 0.00 0.00 71
20260505021001 63 157 0.0 1.7 0.00 0.00 0.00 71
20260505020800 63 157 0.0 3.5 0.00 0.00 0.00 71
20260505020559 63 157 0.0 3.5 0.00 0.00 0.00 70
20260505020359 63 157 0.0 3.5 0.00 0.00 0.00 70
20260505020159 63 157 1.7 3.5 0.00 0.00 0.00 70
20260505020004 63 160 0.9 3.5 0.00 0.00 0.00 69
20260505015759 63 160 0.0 3.5 0.00 0.00 0.00 68
20260505015600 63 160 0.0 3.5 0.00 0.00 0.00 68
20260505015359 63 160 0.9 3.5 0.00 0.00 0.00 68
20260505015159 63 176 0.0 2.6 0.00 0.00 0.00 67
20260505015000 63 154 0.0 0.0 0.00 0.00 0.00 66
20260505014759 63 153 0.0 0.0 0.00 0.00 0.00 66
20260505014600 63 154 0.0 0.0 0.00 0.00 0.00 65
20260505014359 63 154 0.0 0.0 0.00 0.00 0.00 65
20260505014000 63 152 0.0 0.0 0.00 0.00 0.00 66
20260505013759 63 152 0.0 0.0 0.00 0.00 0.00 67
20260505013559 63 153 0.0 0.0 0.00 0.00 0.00 65
20260505013359 63 154 0.0 0.0 0.00 0.00 0.00 66
20260505013159 64 154 0.0 0.0 0.00 0.00 0.00 66
20260505012200 64 156 0.0 0.9 0.00 0.00 0.00 67
20260505012000 64 156 0.0 0.9 0.00 0.00 0.00 66
20260505011800 64 156 0.0 0.9 0.00 0.00 0.00 66
20260505011359 64 156 0.0 0.9 0.00 0.00 0.00 66
20260505011158 64 156 0.0 0.9 0.00 0.00 0.00 66
20260505011004 64 156 0.0 0.9 0.00 0.00 0.00 67
20260505010801 64 155 0.0 0.9 0.00 0.00 0.00 66
20260505010600 64 150 0.0 0.9 0.00 0.00 0.00 67
20260505010359 64 151 0.0 0.9 0.00 0.00 0.00 67
20260505010159 65 150 0.0 0.9 0.00 0.00 0.00 67
20260505010002 65 128 0.0 1.7 0.00 0.00 0.00 67
20260505005759 65 129 0.0 1.7 0.00 0.00 0.00 68
20260505005600 65 128 0.0 1.7 0.00 0.00 0.00 68
20260505005159 65 126 0.0 1.7 0.00 0.00 0.00 67
20260505005000 65 243 0.0 1.7 0.00 0.00 0.00 67
20260505004759 65 243 0.0 1.7 0.00 0.00 0.00 67
20260505004559 65 243 0.0 1.7 0.00 0.00 0.00 67
20260505004400 65 243 0.0 1.7 0.00 0.00 0.00 67
20260505004200 65 272 0.0 2.6 0.00 0.00 0.00 67
20260505003759 65 272 0.0 2.6 0.00 0.00 0.00 67
20260505003559 65 272 0.0 2.6 0.00 0.00 0.00 67
20260505003358 66 272 0.0 2.6 0.00 0.00 0.00 67
20260505003200 66 188 0.0 3.5 0.00 0.00 0.00 67
20260505003005 66 188 0.0 3.5 0.00 0.00 0.00 67
20260505002759 66 188 0.9 3.5 0.00 0.00 0.00 67
20260505002559 66 176 0.9 3.5 0.00 0.00 0.00 67
20260505002359 66 125 0.0 2.6 0.00 0.00 0.00 66
20260505002200 66 125 0.9 2.6 0.00 0.00 0.00 66
20260505002004 66 112 0.0 2.6 0.00 0.00 0.00 66
20260505001759 66 112 0.0 2.6 0.00 0.00 0.00 66
20260505001559 66 112 0.0 2.6 0.00 0.00 0.00 65
20260505001359 66 112 0.9 2.6 0.00 0.00 0.00 65
20260505001159 66 93 0.0 0.9 0.00 0.00 0.00 65
20260505001004 67 139 0.0 0.9 0.00 0.00 0.00 65
20260505000759 67 139 0.0 0.9 0.00 0.00 0.00 64
20260505000559 67 140 0.0 0.9 0.00 0.00 0.00 64
20260505000359 67 139 0.0 0.9 0.00 0.00 0.00 64
20260505000004 67 139 0.0 0.9 0.00 0.00 0.00 63
20260504235758 67 139 0.0 0.9 0.00 0.00 0.00 63
20260504235559 67 139 0.0 0.9 0.00 0.00 0.00 62
20260504235359 67 139 0.0 0.9 0.00 0.00 0.00 62
20260504235158 68 139 0.0 0.9 0.00 0.00 0.00 62
20260504234758 68 139 0.0 1.7 0.00 0.00 0.00 62
20260504234559 68 139 0.0 1.7 0.00 0.00 0.00 61
20260504234359 68 139 0.0 1.7 0.00 0.00 0.00 61
20260504234159 68 139 0.0 1.7 0.00 0.00 0.00 61
20260504234002 68 135 0.0 0.9 0.00 0.00 0.00 61
20260504233759 68 135 0.0 5.2 0.00 0.00 0.00 61
20260504233358 69 135 0.0 5.2 0.00 0.00 0.00 60
20260504233159 69 134 0.0 5.2 0.00 0.00 0.00 60
20260504233004 69 134 1.7 5.2 0.00 0.00 0.00 59
20260504232758 69 164 0.0 3.5 0.00 0.00 0.00 59
20260504232558 69 164 0.0 3.5 0.00 0.00 0.00 59
20260504232401 69 163 0.9 4.3 0.00 0.00 0.00 58
20260504232159 69 156 0.9 4.3 0.00 0.00 0.00 58
20260504232000 69 165 0.0 4.3 0.00 0.00 0.00 58
20260504231759 69 166 1.7 4.3 0.00 0.00 0.00 57
20260504231559 69 146 1.7 5.2 0.00 0.00 0.00 57
20260504231400 69 199 0.9 5.2 0.00 0.00 0.00 57
20260504231159 70 197 1.7 5.2 0.00 0.00 0.00 57
20260504231000 70 181 0.9 5.2 0.00 0.00 0.00 56
20260504230759 70 126 2.6 5.2 0.00 0.00 0.00 56
20260504230559 70 168 0.9 5.2 0.00 0.00 0.00 55
20260504230359 70 280 0.0 4.3 0.00 0.00 0.00 54
20260504230159 70 279 0.9 4.3 0.00 0.00 0.00 54
20260504225759 70 182 0.9 7.8 0.00 0.00 0.00 53
20260504225559 70 166 2.6 7.8 0.00 0.00 0.00 53
20260504225158 70 165 3.5 7.8 0.00 0.00 0.00 52
20260504225005 70 164 0.9 6.1 0.00 0.00 0.00 51
20260504224559 71 228 1.7 9.6 0.00 0.00 0.00 51
20260504224359 71 215 2.6 9.6 0.00 0.00 0.00 50
20260504224159 71 163 2.6 9.6 0.00 0.00 0.00 49
20260504224005 71 179 3.5 9.6 0.00 0.00 0.00 49
20260504223558 71 145 1.7 9.6 0.00 0.00 0.00 48
20260504223359 71 225 3.5 9.6 0.00 0.00 0.00 48
20260504223159 71 167 1.7 9.6 0.00 0.00 0.00 47
20260504223000 71 172 4.3 9.6 0.00 0.00 0.00 46
20260504222759 71 262 3.5 8.7 0.00 0.00 0.00 47
20260504222559 71 160 1.7 8.7 0.00 0.00 0.00 46
20260504222359 72 166 2.6 8.7 0.00 0.00 0.00 46
20260504222159 72 152 1.7 8.7 0.00 0.00 0.00 47
20260504222006 72 320 0.9 7.0 0.00 0.00 0.00 46
20260504221759 72 260 2.6 7.0 0.00 0.00 0.00 46
20260504221559 72 141 3.5 10.4 0.00 0.00 0.00 46
20260504221359 72 150 1.7 10.4 0.00 0.00 0.00 47
20260504221200 72 183 2.6 10.4 0.00 0.00 0.00 47
20260504220759 72 169 3.5 10.4 0.00 0.00 0.00 48
20260504220558 72 183 2.6 9.6 0.00 0.00 0.00 48
20260504220358 72 158 1.7 10.4 0.00 0.00 0.00 48
20260504220159 73 152 1.7 10.4 0.00 0.00 0.00 47
20260504220001 73 120 2.6 10.4 0.00 0.00 0.00 47
20260504215759 73 183 3.5 10.4 0.00 0.00 0.00 46
20260504215600 73 193 4.3 10.4 0.00 0.00 0.00 47
20260504215400 73 148 2.6 7.0 0.00 0.00 0.00 46
20260504215159 73 140 3.5 7.0 0.00 0.00 0.00 46
20260504215002 73 142 2.6 7.0 0.00 0.00 0.00 46
20260504214800 73 146 1.7 5.2 0.00 0.00 0.00 46
20260504214600 74 146 2.6 5.2 0.00 0.00 0.00 46
20260504214158 74 189 2.6 6.1 0.00 0.00 0.00 47
20260504214001 74 173 1.7 7.0 0.00 0.00 0.00 46
20260504213758 74 151 2.6 7.0 0.00 0.00 0.00 45
20260504213559 74 154 2.6 7.8 0.00 0.00 0.00 47
20260504213401 74 186 1.7 7.8 0.00 0.00 0.00 46
20260504213159 74 162 0.9 7.8 0.00 0.00 0.00 46
20260504213001 74 191 1.7 7.8 0.00 0.00 0.00 46
20260504212758 74 177 2.6 7.8 0.00 0.00 0.00 46
20260504212559 74 132 1.7 5.2 0.00 0.00 0.00 46
20260504212359 74 150 0.9 6.1 0.00 0.00 0.00 46
20260504212201 74 195 0.9 7.0 0.00 0.00 0.00 46
20260504211759 74 170 2.6 7.0 0.00 0.00 0.00 45
20260504211601 74 164 3.5 7.0 0.00 0.00 0.00 44
20260504211401 74 161 4.3 7.0 0.00 0.00 0.00 44
20260504211159 74 154 3.5 7.8 0.00 0.00 0.00 44
20260504211005 74 156 2.6 7.8 0.00 0.00 0.00 44
20260504210558 74 185 2.6 8.7 0.00 0.00 0.00 45
20260504210400 74 222 1.7 8.7 0.00 0.00 0.00 44
20260504210200 74 187 3.5 8.7 0.00 0.00 0.00 43
20260504210005 74 172 2.6 6.1 0.00 0.00 0.00 44
20260504205800 74 191 1.7 8.7 0.00 0.00 0.00 44
20260504205559 74 172 2.6 9.6 0.00 0.00 0.00 44
20260504205400 74 191 2.6 9.6 0.00 0.00 0.00 44
20260504205159 74 189 3.5 9.6 0.00 0.00 0.00 44
20260504205005 74 203 2.6 9.6 0.00 0.00 0.00 45
20260504204801 74 149 2.6 9.6 0.00 0.00 0.00 45
20260504204600 74 158 2.6 8.7 0.00 0.00 0.00 43
20260504204400 74 241 2.6 8.7 0.00 0.00 0.00 45
20260504204200 74 154 3.5 8.7 0.00 0.00 0.00 44
20260504203800 74 181 2.6 13.9 0.00 0.00 0.00 43
20260504203600 75 144 3.5 13.9 0.00 0.00 0.00 43
20260504203400 75 137 2.6 13.9 0.00 0.00 0.00 44
20260504203200 75 162 4.3 13.9 0.00 0.00 0.00 43
20260504203006 75 187 2.6 8.7 0.00 0.00 0.00 44
20260504202800 75 154 3.5 8.7 0.00 0.00 0.00 43
20260504202401 75 245 1.7 7.0 0.00 0.00 0.00 44
20260504202201 75 162 1.7 8.7 0.00 0.00 0.00 43
20260504202005 75 214 2.6 8.7 0.00 0.00 0.00 43
20260504201600 75 154 3.5 8.7 0.00 0.00 0.00 43
20260504201400 75 142 2.6 7.0 0.00 0.00 0.00 42
20260504201005 76 146 3.5 6.1 0.00 0.00 0.00 42
20260504200759 76 155 3.5 6.1 0.00 0.00 0.00 42
20260504200600 76 168 2.6 6.1 0.00 0.00 0.00 44
20260504200401 76 122 0.9 3.5 0.00 0.00 0.00 43
20260504200201 76 72 0.9 3.5 0.00 0.00 0.00 44
20260504200004 76 177 0.9 5.2 0.00 0.00 0.00 42
20260504195800 76 180 0.9 7.8 0.00 0.00 0.00 43
20260504195401 76 212 1.7 7.8 0.00 0.00 0.00 41
20260504195001 76 115 0.9 6.1 0.00 0.00 0.00 40
20260504194800 76 193 0.0 6.1 0.00 0.00 0.00 38
20260504194559 76 193 1.7 6.1 0.00 0.00 0.00 38
20260504194401 75 193 1.7 4.3 0.00 0.00 0.00 41
20260504194158 75 194 0.0 3.5 0.00 0.00 0.00 44
20260504194005 75 204 0.9 5.2 0.00 0.00 0.00 43
20260504193800 75 216 0.9 5.2 0.00 0.00 0.00 44
20260504193559 75 36 0.9 5.2 0.00 0.00 0.00 42
20260504193400 75 68 0.9 5.2 0.00 0.00 0.00 44
20260504193159 75 218 1.7 5.2 0.00 0.00 0.00 46
20260504193005 75 350 1.7 3.5 0.00 0.00 0.00 47
20260504192802 75 324 0.9 3.5 0.00 0.00 0.00 45
20260504192559 75 155 1.7 3.5 0.00 0.00 0.00 43
20260504192359 75 270 0.0 5.2 0.00 0.00 0.00 42
20260504191759 75 134 1.7 5.2 0.00 0.00 0.00 44
20260504191359 75 208 1.7 4.3 0.00 0.00 0.00 44
20260504191158 75 141 2.6 4.3 0.00 0.00 0.00 44
20260504191004 75 129 1.7 4.3 0.00 0.00 0.00 46
20260504190759 75 77 0.9 3.5 0.00 0.00 0.00 45
20260504190559 76 70 0.9 2.6 0.00 0.00 0.00 46
20260504190400 76 60 0.0 2.6 0.00 0.00 0.00 49
20260504190200 76 41 0.9 2.6 0.00 0.00 0.00 47
20260504185559 76 112 0.9 5.2 0.00 0.00 0.00 43
20260504185359 76 165 0.9 5.2 0.00 0.00 0.00 43
20260504185200 75 155 0.9 5.2 0.00 0.00 0.00 41
20260504185005 75 130 0.0 5.2 0.00 0.00 0.00 41
20260504184759 75 123 2.6 5.2 0.00 0.00 0.00 41
20260504184559 75 167 1.7 5.2 0.00 0.00 0.00 42
20260504184359 75 154 0.9 4.3 0.00 0.00 0.00 42
20260504184200 75 154 1.7 4.3 0.00 0.00 0.00 42
20260504184004 75 149 0.0 7.0 0.00 0.00 0.00 42
20260504183759 75 149 0.0 7.0 0.00 0.00 0.00 41
20260504183600 75 149 0.9 7.0 0.00 0.00 0.00 41
20260504183359 75 148 1.7 7.0 0.00 0.00 0.00 40
20260504183159 75 227 0.9 5.2 0.00 0.00 0.00 39
20260504182759 75 137 1.7 5.2 0.00 0.00 0.00 40
20260504182559 75 120 0.9 7.0 0.00 0.00 0.00 40
20260504182400 75 140 0.9 7.0 0.00 0.00 0.00 41
20260504182202 75 144 1.7 7.0 0.00 0.00 0.00 40
20260504182005 75 164 2.6 7.0 0.00 0.00 0.00 42
20260504181600 74 156 0.0 5.2 0.00 0.00 0.00 41
20260504181401 74 156 1.7 5.2 0.00 0.00 0.00 40
20260504181003 74 162 1.7 5.2 0.00 0.00 0.00 42
20260504180558 74 162 0.9 8.7 0.00 0.00 0.00 42
20260504180159 74 184 0.9 8.7 0.00 0.00 0.00 44
20260504180005 74 310 0.9 8.7 0.00 0.00 0.00 47
20260504175758 73 162 2.6 8.7 0.00 0.00 0.00 43
20260504175600 73 41 0.0 2.6 0.00 0.00 0.00 46
20260504175359 73 39 0.0 4.3 0.00 0.00 0.00 52
20260504175159 73 39 1.7 4.3 0.00 0.00 0.00 47
20260504174759 73 54 0.9 4.3 0.00 0.00 0.00 48
20260504174559 73 222 0.9 4.3 0.00 0.00 0.00 47
20260504174359 73 350 0.9 4.3 0.00 0.00 0.00 45
20260504174200 73 160 1.7 4.3 0.00 0.00 0.00 45
20260504174006 73 45 0.9 3.5 0.00 0.00 0.00 47
20260504173759 73 299 0.9 3.5 0.00 0.00 0.00 49
20260504173601 73 23 0.9 3.5 0.00 0.00 0.00 52
20260504173400 72 43 0.9 3.5 0.00 0.00 0.00 55
20260504173200 72 47 0.9 3.5 0.00 0.00 0.00 54
20260504172759 72 45 0.0 2.6 0.00 0.00 0.00 53
20260504172600 72 43 0.9 3.5 0.00 0.00 0.00 51
20260504172200 72 8 1.7 3.5 0.00 0.00 0.00 53
20260504172004 71 35 0.9 3.5 0.00 0.00 0.00 53
20260504171759 71 93 0.9 4.3 0.00 0.00 0.00 53
20260504171604 71 120 0.0 2.6 0.00 0.00 0.00 51
20260504171402 71 121 0.9 2.6 0.00 0.00 0.00 49
20260504171159 71 120 0.9 2.6 0.00 0.00 0.00 49
20260504170601 70 58 0.9 4.3 0.00 0.00 0.00 51
20260504170401 70 176 0.9 4.3 0.00 0.00 0.00 49
20260504170200 70 48 0.0 4.3 0.00 0.00 0.00 54
20260504160359 71 65 0.0 2.6 0.00 0.00 0.00 53
20260504160200 71 46 0.9 2.6 0.00 0.00 0.00 50
20260504150800 68 228 2.6 5.2 0.00 0.00 0.00 41
20260504150600 67 195 1.7 5.2 0.00 0.00 0.00 42
20260504150359 67 162 0.9 5.2 0.00 0.00 0.00 42
20260504150159 67 157 1.7 5.2 0.00 0.00 0.00 42
20260504141159 63 165 2.6 6.1 0.00 0.00 0.00 49
20260504140759 62 254 3.5 6.1 0.00 0.00 0.00 53
20260504140359 62 239 1.7 3.5 0.00 0.00 0.00 57
20260504140159 62 261 0.9 3.5 0.00 0.00 0.00 51
20260504130601 58 236 3.5 8.7 0.00 0.00 0.00 56
20260504130401 58 212 3.5 8.7 0.00 0.00 0.00 55
20260504130201 58 238 4.3 11.3 0.00 0.00 0.00 55
20260504120200 55 242 5.2 12.2 0.00 0.00 0.00 59
20260504110600 52 229 1.7 7.0 0.00 0.00 0.00 64
20260504110400 52 239 1.7 7.0 0.00 0.00 0.00 64
20260504110159 52 240 1.7 6.1 0.00 0.00 0.00 64
20260504100600 53 218 1.7 7.0 0.00 0.00 0.00 65
20260504100400 53 216 2.6 7.0 0.00 0.00 0.00 65
20260504082005 52 239 0.0 1.7 0.00 0.00 0.00 65
20260504081801 52 239 0.0 1.7 0.00 0.00 0.00 65
20260504081401 52 239 0.0 1.7 0.00 0.00 0.00 65
20260504081005 52 239 0.0 1.7 0.00 0.00 0.00 65
20260504080758 52 239 0.0 1.7 0.00 0.00 0.00 65
20260504080601 52 238 0.0 1.7 0.00 0.00 0.00 66
20260504080402 52 238 0.0 1.7 0.00 0.00 0.00 65
20260504070359 51 233 0.0 2.6 0.00 0.00 0.00 66
20260504070159 51 233 0.9 2.6 0.00 0.00 0.00 66
20260504050559 48 231 0.0 0.0 0.00 0.00 0.00 68
20260504050359 48 231 0.0 0.0 0.00 0.00 0.00 66
20260504050159 48 231 0.0 0.0 0.00 0.00 0.00 67
20260504050003 47 231 0.0 0.0 0.00 0.00 0.00 68
20260504045801 47 230 0.0 0.0 0.00 0.00 0.00 68
20260504045559 47 231 0.0 0.0 0.00 0.00 0.00 68
20260504045359 47 231 0.0 0.0 0.00 0.00 0.00 68
20260504045159 47 231 0.0 0.0 0.00 0.00 0.00 68
20260504045003 47 231 0.0 0.0 0.00 0.00 0.00 67
20260504044800 47 231 0.0 0.9 0.00 0.00 0.00 68
20260504044559 47 231 0.0 0.9 0.00 0.00 0.00 69
20260504044400 47 230 0.0 0.9 0.00 0.00 0.00 67
20260504044200 47 230 0.0 0.9 0.00 0.00 0.00 67
20260504043759 47 230 0.0 0.0 0.00 0.00 0.00 66
20260504043602 47 230 0.0 0.0 0.00 0.00 0.00 66
20260504043401 47 231 0.0 0.0 0.00 0.00 0.00 66
20260504043200 47 231 0.0 0.0 0.00 0.00 0.00 66
20260504043005 47 230 0.0 0.0 0.00 0.00 0.00 66